New Bedford, MA

1:44 PM EDT on April 30, 2017 (GMT -0400)
New Bedford Regional

Weather History for KEWB - May, 2014

Change the Weather History Date:

Tuesday, May 20, 2014

  Actual Average Record
Temperature  
Mean Temperature 60 °F -  
Max Temperature 72 °F 67 °F 88 °F (1975)
Min Temperature 46 °F 50 °F 36 °F (2002)
Degree Days  
Heating Degree Days 6    
Growing Degree Days 10 (Base 50)    
Moisture  
Dew Point 45 °F    
Average Humidity 64    
Maximum Humidity 94    
Minimum Humidity 34    
Precipitation  
Precipitation 0.02 in - - ()
Sea Level Pressure  
Sea Level Pressure 29.97 in    
Wind  
Wind Speed 5 mph (SSW)    
Max Wind Speed 13 mph    
Max Gust Speed 23 mph    
Visibility 10 miles    
Events Rain    
Averages and records for this station are not official NWS values.
T = Trace of Precipitation, MM = Missing Value Source: NWS Daily Summary

Daily Weather History Graph

Daily Weather History Graph

Search for Another Location

Airport or City:

Trip Planner

Search our weather history database for the weather conditions in past years. The results will help you decide how hot, cold, wet, or windy it might be!

Date:

Astronomy

May. 20, 2014 Rise Set
Actual Time 5:19 AM EDT 8:01 PM EDT
Civil Twilight 4:47 AM EDT 8:33 PM EDT
Nautical Twilight 4:07 AM EDT 9:14 PM EDT
Astronomical Twilight 3:21 AM EDT 10:00 PM EDT
Moon 12:27 AM EDT (5/20) 11:25 AM EDT (5/20)
Length of Visible Light 15h 46m
Length of Day
14h 41m
Waning Gibbous, 60% of the Moon is Illuminated
May 20
Waning Gibbous
May 21
Last Quarter
May 28
New
Jun 5
First Quarter
Jun 13
Full

Hourly Weather History & Observations

Time (EDT) Temp. Windchill Dew Point Humidity Pressure Visibility Wind Dir Wind Speed Gust Speed Precip Events Conditions
12:53 AM 51.1 °F - 46.9 °F 86% 30.01 in 10.0 mi Calm Calm - 0.02 in Rain Light Rain
1:53 AM 51.1 °F - 46.9 °F 86% 29.98 in 10.0 mi West 8.1 mph - 0.00 in Rain Light Rain
2:53 AM 50.0 °F - 48.2 °F 94% 29.98 in 10.0 mi NE 5.8 mph - N/A Rain Light Rain
3:53 AM 48.9 °F - 46.9 °F 93% 29.98 in 10.0 mi WSW 3.5 mph - 0.00 in   Overcast
4:53 AM 48.2 °F - 46.4 °F 93% 29.98 in 10.0 mi Calm Calm - N/A   Mostly Cloudy
5:53 AM 50.0 °F - 43.0 °F 77% 29.99 in 10.0 mi NW 3.5 mph - N/A   Clear
6:53 AM 52.0 °F - 44.1 °F 74% 30.00 in 10.0 mi Calm Calm - N/A   Clear
7:53 AM 57.2 °F - 44.6 °F 63% 30.00 in 10.0 mi NW 8.1 mph - N/A   Clear
8:53 AM 62.1 °F - 43.0 °F 50% 30.00 in 10.0 mi Variable 6.9 mph - N/A   Clear
9:53 AM 64.9 °F - 42.1 °F 43% 29.99 in 10.0 mi Variable 6.9 mph - N/A   Clear
10:53 AM 66.9 °F - 39.9 °F 37% 29.97 in 10.0 mi Variable 5.8 mph 23.0 mph N/A   Clear
11:53 AM 69.1 °F - 39.9 °F 35% 29.96 in 10.0 mi Variable 5.8 mph - N/A   Partly Cloudy
12:53 PM 71.1 °F - 41.0 °F 34% 29.95 in 10.0 mi ENE 4.6 mph - N/A   Mostly Cloudy
1:53 PM 70.0 °F - 41.0 °F 35% 29.95 in 10.0 mi Variable 4.6 mph 18.4 mph N/A   Mostly Cloudy
2:53 PM 66.9 °F - 45.0 °F 45% 29.95 in 10.0 mi South 11.5 mph - N/A   Mostly Cloudy
3:53 PM 68.0 °F - 46.9 °F 47% 29.95 in 10.0 mi South 8.1 mph - N/A   Clear
4:53 PM 64.4 °F - 46.4 °F 52% 29.95 in 10.0 mi South 12.7 mph - N/A   Partly Cloudy
5:53 PM 63.0 °F - 45.0 °F 52% 29.96 in 10.0 mi South 10.4 mph - N/A   Mostly Cloudy
6:53 PM 62.1 °F - 44.1 °F 52% 29.96 in 10.0 mi South 8.1 mph - N/A   Clear
7:53 PM 57.9 °F - 46.0 °F 65% 29.97 in 10.0 mi South 4.6 mph - N/A   Clear
8:53 PM 55.0 °F - 46.9 °F 74% 29.98 in 10.0 mi South 4.6 mph - N/A   Partly Cloudy
9:53 PM 53.1 °F - 46.9 °F 80% 29.99 in 10.0 mi SSW 3.5 mph - N/A   Overcast
10:53 PM 52.0 °F - 46.9 °F 83% 29.98 in 10.0 mi Calm Calm - N/A   Clear
11:53 PM 46.0 °F 42.5 °F 44.1 °F 93% 29.97 in 10.0 mi NNE 6.9 mph - N/A   Clear